Weather Service Report


718 
ASCA42 TJSJ 200111
RWRPR 
PUERTO RICO/U.S. VIRGIN ISLANDS HOURLY WEATHER ROUNDUP
NATIONAL WEATHER SERVICE SAN JUAN PR
900 PM AST FRI DEC 19 2014

PRZ001-004-200200-
PUERTO RICO
  
CITY           SKY/WX    TMP DP  RH WIND       PRES   REMARKS
SAN JUAN LMM   PTCLDY    79  72  78 E8        30.01R                  
PONCE          MOCLDY    75  66  73 CALM      29.94                   
AGUADILLA      PTCLDY    73  66  78 SE6       30.02R                  
CEIBA          PTCLDY    79  70  73 NE7       30.03R                  
$$

PRZ006-007-200200-
U.S. VIRGIN ISLANDS
  
CITY           SKY/WX    TMP DP  RH WIND       PRES   REMARKS
CHARLOTTE AMA  CLEAR     75  68  78 E3        30.01R                  
CHRISTIANSTED  CLEAR     73  70  88 N6        30.01                   
$$

HOURLY WEATHER ROUNDUP FOR THE NEWS MEDIA
  
CITY           SKY/WX    TMP DP  RH WIND       PRES   REMARKS
MIAMI          MOCLDY    70  59  68 SE3       30.08R                  
ORLANDO        PTCLDY    61  46  57 E5        30.09R                  
NEW YORK       MOCLDY    34  19  54 NW15      30.17R WCI  24          
NEWARK         MOCLDY    32  21  64 NW12G22   30.17R WCI  23          
CHICAGO        CLOUDY    30  22  72 N7        30.27F WCI  23          
HARTFORD       CLOUDY    34  23  64 CALM      30.08R                  
BOSTON         PTCLDY    31  20  63 NW9       30.09R WCI  23          
DALLAS         CLOUDY    49  45  86 N7        30.18S                  
PHILADELPHIA   CLEAR     34  21  59 N6        30.18S WCI  29          

Return to Home page


Western Regional Climate Center, wrcc@dri.edu